Weather History for Coffeyville, KS

Change the Weather History Date:

Thursday, February 21, 2013

  Actual Average Record
Temperature  
Mean Temperature 31 °F -  
Max Temperature 34 °F 49 °F 68 °F (2007)
Min Temperature 26 °F 30 °F 19 °F (2006)
Degree Days  
Heating Degree Days 34    
Moisture  
Dew Point 29 °F    
Average Humidity 89    
Maximum Humidity 96    
Minimum Humidity 73    
Precipitation  
Precipitation 0.01 in - - ()
Sea Level Pressure  
Sea Level Pressure 29.84 in    
Wind  
Wind Speed 13 mph (ENE)    
Max Wind Speed 24 mph    
Max Gust Speed 36 mph    
Visibility 5 miles    
Events Rain , Snow , Thunderstorm    
Averages and records for this station are not official NWS values.
T = Trace of Precipitation, MM = Missing Value Source: NWS Daily Summary

Daily Weather History Graph

Daily Weather History Graph

Search for Another Location

Airport:

Trip Planner

Search our weather history database for the weather conditions in past years. The results will help you decide how hot, cold, wet, or windy it might be!

Date:

Astronomy

Feb. 21, 2013 Rise Set
Actual Time 7:03 AM CST 6:08 PM CST
Civil Twilight 6:37 AM CST 6:35 PM CST
Nautical Twilight 6:06 AM CST 7:05 PM CST
Astronomical Twilight 5:36 AM CST 7:35 PM CST
Moon 2:28 PM CST (2/21) 4:05 AM CST (2/21)
Length of Visible Light 11h 58m
Length of Day
11h 05m
Waxing Gibbous, 84% of the Moon is Illuminated
Feb 21
Waxing Gibbous
Feb 25
Full
Mar 4
Last Quarter
Mar 11
New
Mar 19
First Quarter

Hourly Weather History & Observations

Time (CST) Temp. Windchill Dew Point Humidity Pressure Visibility Wind Dir Wind Speed Gust Speed Precip Events Conditions
12:52 AM 32.0 °F 23.0 °F 24.1 °F 73% 30.07 in 10.0 mi ENE 11.5 mph - 0.00 in   Overcast
1:52 AM 32.0 °F 22.5 °F 24.1 °F 73% 30.02 in 10.0 mi East 12.7 mph 19.6 mph 0.00 in   Overcast
2:39 AM 32.0 °F 21.6 °F 24.8 °F 75% 29.95 in 10.0 mi East 15.0 mph 23.0 mph 0.00 in   Overcast
2:52 AM 32.0 °F 21.2 °F 25.0 °F 75% 29.95 in 5.0 mi East 16.1 mph 23.0 mph 0.00 in Rain Light Freezing Rain
3:17 AM 32.0 °F 21.6 °F 26.6 °F 80% 29.95 in 8.0 mi East 15.0 mph - N/A Rain Light Freezing Rain
3:26 AM 32.0 °F 21.2 °F 26.6 °F 80% 29.94 in 4.0 mi East 16.1 mph 23.0 mph N/A Rain Light Freezing Rain
3:52 AM 30.9 °F 20.2 °F 28.0 °F 89% 29.93 in 8.0 mi ENE 15.0 mph 19.6 mph N/A Rain Light Freezing Rain
4:26 AM 30.2 °F 18.5 °F 26.6 °F 86% 29.91 in 6.0 mi ENE 17.3 mph 24.2 mph N/A Rain , Thunderstorm Light Freezing Rain
4:52 AM 30.9 °F 19.4 °F 28.0 °F 89% 29.87 in 3.0 mi ENE 17.3 mph 31.1 mph N/A Rain , Thunderstorm Light Freezing Rain
5:01 AM 30.2 °F 18.9 °F 28.4 °F 93% 29.86 in 5.0 mi ENE 16.1 mph 25.3 mph N/A Rain Light Freezing Rain
5:09 AM 30.2 °F 18.1 °F 28.4 °F 93% 29.83 in 3.0 mi ENE 18.4 mph 23.0 mph N/A Rain Light Freezing Rain
5:26 AM 30.2 °F 17.1 °F 28.4 °F 93% 29.82 in 5.0 mi ENE 21.9 mph 35.7 mph N/A Rain , Thunderstorm Light Freezing Rain
5:52 AM 30.9 °F 17.5 °F 28.0 °F 89% 29.81 in 5.0 mi ENE 24.2 mph 29.9 mph N/A Rain , Thunderstorm Light Freezing Rain
6:07 AM 30.2 °F 18.9 °F 28.4 °F 93% 29.83 in 7.0 mi ENE 16.1 mph 26.5 mph N/A Rain Light Freezing Rain
6:23 AM 32.0 °F 22.1 °F 28.4 °F 87% 29.84 in 5.0 mi ENE 13.8 mph - N/A Rain Light Freezing Rain
6:32 AM 32.0 °F 21.6 °F 28.4 °F 87% 29.85 in 4.0 mi NE 15.0 mph - N/A Rain , Thunderstorm Light Freezing Rain
6:47 AM 32.0 °F 23.6 °F 30.2 °F 93% 29.94 in 4.0 mi NNW 10.4 mph - N/A Rain Light Freezing Rain
6:52 AM 32.0 °F 23.0 °F 28.9 °F 88% 29.94 in 4.0 mi North 11.5 mph - N/A Rain Light Freezing Rain
7:03 AM 32.0 °F 22.5 °F 30.2 °F 93% 29.89 in 3.0 mi NNE 12.7 mph - 0.00 in Rain , Thunderstorm Light Freezing Rain
7:10 AM 32.0 °F 25.6 °F 30.2 °F 93% 29.93 in 2.5 mi North 6.9 mph - N/A Rain , Thunderstorm Light Freezing Rain
7:22 AM 32.0 °F 21.2 °F 30.2 °F 93% 29.87 in 2.0 mi NE 16.1 mph - N/A   Overcast
7:31 AM 32.0 °F 21.6 °F 30.2 °F 93% 29.86 in 2.0 mi NE 15.0 mph 21.9 mph N/A   Overcast
7:38 AM 32.0 °F 22.5 °F 30.2 °F 93% 29.89 in 2.0 mi NE 12.7 mph 21.9 mph N/A   Overcast
7:52 AM 32.0 °F 20.8 °F 30.0 °F 92% 29.89 in 2.5 mi NE 17.3 mph - N/A   Overcast
8:07 AM 32.0 °F 19.5 °F 30.2 °F 93% 29.81 in 3.0 mi ENE 21.9 mph 27.6 mph N/A   Overcast
8:16 AM 32.0 °F 21.2 °F 30.2 °F 93% 29.86 in 3.0 mi ENE 16.1 mph 25.3 mph N/A Rain , Thunderstorm Light Freezing Rain
8:31 AM 32.0 °F 20.8 °F 30.2 °F 93% 29.83 in 2.0 mi ENE 17.3 mph 23.0 mph N/A Rain , Thunderstorm Light Freezing Rain
8:40 AM 32.0 °F 20.5 °F 30.2 °F 93% 29.81 in 3.0 mi ENE 18.4 mph 24.2 mph N/A Rain , Thunderstorm Light Freezing Rain
8:48 AM 33.8 °F 24.3 °F 30.2 °F 87% 29.85 in 4.0 mi ENE 13.8 mph 24.2 mph N/A Rain Light Freezing Rain
8:52 AM 33.1 °F 23.9 °F 30.0 °F 89% 29.87 in 6.0 mi ENE 12.7 mph 21.9 mph N/A Rain Light Freezing Rain
9:06 AM 33.8 °F 23.9 °F 30.2 °F 87% 29.83 in 8.0 mi ENE 15.0 mph - N/A Rain Light Rain
9:20 AM 33.8 °F 23.2 °F 30.2 °F 87% 29.81 in 6.0 mi ENE 17.3 mph - N/A Rain Light Freezing Rain
9:29 AM 33.8 °F 23.5 °F 30.2 °F 87% 29.82 in 8.0 mi ENE 16.1 mph 21.9 mph N/A Rain Light Freezing Rain
9:52 AM 33.1 °F 23.0 °F 30.0 °F 89% 29.85 in 4.0 mi East 15.0 mph 21.9 mph N/A Rain Light Freezing Rain
10:02 AM 33.8 °F 24.3 °F 30.2 °F 87% 29.82 in 4.0 mi East 13.8 mph 21.9 mph N/A Rain Light Freezing Rain
10:24 AM 33.8 °F 23.9 °F 30.2 °F 87% 29.80 in 6.0 mi East 15.0 mph 21.9 mph N/A Rain Light Freezing Rain
10:52 AM 33.1 °F 23.9 °F 30.0 °F 89% 29.80 in 10.0 mi East 12.7 mph 20.7 mph N/A Rain Light Freezing Rain
11:03 AM 33.8 °F 25.3 °F 30.2 °F 87% 29.78 in 10.0 mi East 11.5 mph 23.0 mph 0.00 in   Overcast
11:52 AM 33.1 °F 24.9 °F 30.9 °F 92% 29.77 in 10.0 mi East 10.4 mph - 0.00 in   Overcast
12:52 PM 33.1 °F 24.9 °F 30.9 °F 92% 29.75 in 4.0 mi East 10.4 mph - 0.01 in   Overcast
1:32 PM 33.8 °F 27.7 °F 30.2 °F 87% 29.72 in 3.0 mi East 6.9 mph - N/A   Overcast
1:52 PM 33.1 °F 26.1 °F 30.9 °F 92% 29.73 in 5.0 mi East 8.1 mph - N/A   Overcast
2:20 PM 33.8 °F 27.0 °F 30.2 °F 87% 29.70 in 2.0 mi East 8.1 mph - 0.00 in Rain Light Rain
2:35 PM 33.8 °F 28.6 °F 32.0 °F 93% 29.71 in 1.5 mi East 5.8 mph - 0.00 in Rain Light Rain
2:52 PM 33.1 °F 28.7 °F 32.0 °F 96% 29.73 in 1.2 mi East 4.6 mph - 0.00 in Rain Light Rain
3:52 PM 33.1 °F 30.0 °F 32.0 °F 96% 29.73 in 1.5 mi ENE 3.5 mph - 0.00 in Rain Light Rain
4:52 PM 33.1 °F - 32.0 °F 96% 29.75 in 1.2 mi Calm Calm - 0.00 in Snow Light Snow
5:42 PM 33.8 °F 30.8 °F 32.0 °F 93% 29.73 in 2.0 mi SE 3.5 mph - 0.00 in   Overcast
5:52 PM 33.1 °F 30.0 °F 32.0 °F 96% 29.76 in 2.0 mi SE 3.5 mph - 0.00 in   Overcast
6:11 PM 33.8 °F 29.6 °F 32.0 °F 93% 29.75 in 3.0 mi SW 4.6 mph - N/A   Overcast
6:52 PM 34.0 °F 28.0 °F 32.0 °F 92% 29.79 in 5.0 mi SSW 6.9 mph - N/A   Overcast
7:52 PM 34.0 °F 27.2 °F 32.0 °F 92% 29.80 in 7.0 mi SW 8.1 mph - N/A   Overcast
8:52 PM 34.0 °F 27.2 °F 32.0 °F 92% 29.81 in 9.0 mi WSW 8.1 mph - N/A   Overcast
9:03 PM 33.8 °F 27.0 °F 32.0 °F 93% 29.79 in 9.0 mi SW 8.1 mph - N/A   Overcast
9:52 PM 34.0 °F 25.5 °F 32.0 °F 92% 29.83 in 10.0 mi WSW 11.5 mph - N/A   Overcast
10:00 PM 33.8 °F 24.8 °F 30.2 °F 87% 29.82 in 10.0 mi West 12.7 mph 20.7 mph N/A   Overcast
10:52 PM 28.9 °F 17.3 °F 24.1 °F 82% 29.89 in 10.0 mi West 16.1 mph - N/A   Partly Cloudy
11:52 PM 26.1 °F 15.0 °F 21.0 °F 81% 29.93 in 10.0 mi WSW 12.7 mph - N/A   Partly Cloudy